Philadelphia, PA

9:04 AM EST on November 20, 2019 (GMT -0500)
Philadelphia International

Weather History for KPHL - May, 2019

Change the Weather History Date:

Monday, May 13, 2019

  Actual Average Record
Temperature  
Mean Temperature 50 °F 63 °F  
Max Temperature 53 °F 73 °F 92 °F (1881)
Min Temperature 46 °F 53 °F 37 °F (1967)
Degree Days  
Heating Degree Days 15 4  
Month to date heating degree days 57 67  
Since 1 July heating degree days 4342 4557  
Cooling Degree Days 0 2  
Month to date cooling degree days 9 17  
Year to date cooling degree days 33 30  
Moisture  
Dew Point 46 °F    
Average Humidity 90    
Maximum Humidity 93    
Minimum Humidity 86    
Precipitation  
Precipitation 0.93 in 0.12 in 1.79 in (2017)
Month to date precipitation 3.79 1.47  
Year to date precipitation 17.85 14.50  
Snow  
Snow 0.00 in 0.00 in 0.00 in ()
Month to date snowfall 0.0 0.0  
Since 1 July snowfall 17.1 22.4  
Snow Depth 0.00 in    
Sea Level Pressure  
Sea Level Pressure 29.82 in    
Wind  
Wind Speed 9 mph (NE)    
Max Wind Speed 18 mph    
Max Gust Speed 24 mph    
Visibility 6 miles    
Events Rain    
T = Trace of Precipitation, MM = Missing Value Source: NWS Daily Summary

Daily Weather History Graph

Daily Weather History Graph

Search for Another Location

Airport or City:

Astronomy

May. 13, 2019 Rise Set
Actual Time 5:48 AM EDT 8:07 PM EDT
Civil Twilight 5:17 AM EDT 8:37 PM EDT
Nautical Twilight 4:40 AM EDT 9:15 PM EDT
Astronomical Twilight 3:59 AM EDT 9:56 PM EDT
Moon 2:16 PM EDT (5/13) 3:04 AM EDT (5/13)
Length of Visible Light 15h 19m
Length of Day
14h 18m
Waxing Gibbous, 68% of the Moon is Illuminated
May 13
Waxing Gibbous
May 18
Full
May 26
Last Quarter
Jun 3
New
Jun 10
First Quarter

Hourly Weather History & Observations

Time (EDT) Temp. Windchill Dew Point Humidity Pressure Visibility Wind Dir Wind Speed Gust Speed Precip Events Conditions
12:19 AM 46.9 °F - 44.1 °F 90% 29.87 in 3.0 mi ENE 10.4 mph - 0.00 in   Light Drizzle
12:54 AM 46.0 °F 41.4 °F 44.1 °F 93% 29.87 in 3.0 mi NE 9.2 mph - 0.00 in   Light Drizzle
1:54 AM 46.0 °F 40.2 °F 44.1 °F 93% 29.86 in 3.0 mi NE 12.7 mph - 0.00 in   Light Drizzle
2:11 AM 46.0 °F 41.0 °F 43.0 °F 89% 29.86 in 6.0 mi NE 10.4 mph 19.6 mph 0.00 in   Overcast
2:24 AM 46.0 °F 41.0 °F 44.1 °F 93% 29.85 in 8.0 mi ENE 10.4 mph - 0.00 in   Overcast
2:54 AM 46.0 °F 41.0 °F 44.1 °F 93% 29.84 in 8.0 mi ENE 10.4 mph - 0.00 in   Overcast
3:32 AM 46.0 °F 41.4 °F 44.1 °F 93% 29.85 in 7.0 mi NE 9.2 mph 18.4 mph N/A   Overcast
3:54 AM 46.0 °F 41.4 °F 44.1 °F 93% 29.84 in 7.0 mi NE 9.2 mph - N/A   Overcast
4:54 AM 46.0 °F 41.0 °F 44.1 °F 93% 29.84 in 8.0 mi NE 10.4 mph - N/A   Overcast
5:23 AM 46.0 °F 42.5 °F 44.1 °F 93% 29.85 in 6.0 mi NNE 6.9 mph - N/A   Overcast
5:54 AM 46.0 °F 41.9 °F 44.1 °F 93% 29.84 in 6.0 mi ENE 8.1 mph - 0.00 in Rain Light Rain
6:34 AM 46.0 °F 41.4 °F 44.1 °F 93% 29.85 in 3.0 mi NE 9.2 mph 20.7 mph 0.04 in Rain Rain
6:54 AM 46.0 °F 41.4 °F 44.1 °F 93% 29.86 in 5.0 mi NNE 9.2 mph - 0.09 in Rain Light Rain
7:35 AM 46.0 °F 41.0 °F 44.1 °F 93% 29.85 in 4.0 mi NE 10.4 mph - 0.03 in Rain Rain
7:54 AM 46.0 °F 41.0 °F 44.1 °F 93% 29.85 in 5.0 mi ENE 10.4 mph - 0.06 in Rain Light Rain
8:54 AM 48.0 °F - 45.0 °F 89% 29.86 in 6.0 mi Variable 4.6 mph - 0.02 in Rain Light Rain
9:13 AM 48.0 °F - 46.0 °F 93% 29.85 in 4.0 mi ENE 6.9 mph - 0.04 in Rain Rain
9:32 AM 48.0 °F - 46.0 °F 93% 29.85 in 6.0 mi NE 9.2 mph - 0.09 in Rain Light Rain
9:54 AM 48.9 °F - 46.9 °F 93% 29.84 in 6.0 mi NE 9.2 mph - 0.10 in Rain Light Rain
10:21 AM 48.9 °F - 46.0 °F 90% 29.82 in 7.0 mi ENE 10.4 mph - 0.00 in Rain Light Rain
10:54 AM 50.0 °F - 46.9 °F 89% 29.81 in 10.0 mi East 16.1 mph - 0.00 in Rain Light Rain
11:40 AM 50.0 °F - 46.9 °F 89% 29.81 in 6.0 mi East 9.2 mph - 0.01 in Rain Light Rain
11:54 AM 50.0 °F - 46.9 °F 89% 29.81 in 5.0 mi East 11.5 mph - 0.02 in Rain Light Rain
12:11 PM 50.0 °F - 46.9 °F 89% 29.81 in 4.0 mi East 9.2 mph - 0.04 in Rain Rain
12:26 PM 50.0 °F - 46.9 °F 89% 29.81 in 5.0 mi ENE 9.2 mph - 0.06 in Rain Light Rain
12:40 PM 50.0 °F - 46.9 °F 89% 29.81 in 2.5 mi East 11.5 mph - 0.14 in Rain Heavy Rain
12:47 PM 50.0 °F - 46.9 °F 89% 29.81 in 3.0 mi East 10.4 mph - 0.17 in Rain Rain
12:54 PM 50.0 °F - 46.9 °F 89% 29.79 in 4.0 mi East 12.7 mph - 0.19 in Rain Rain
1:05 PM 50.0 °F - 48.0 °F 93% 29.77 in 4.0 mi East 15.0 mph - 0.03 in Rain Rain
1:18 PM 52.0 °F - 48.9 °F 89% 29.78 in 9.0 mi East 11.5 mph - 0.05 in Rain Light Rain
1:34 PM 53.1 °F - 48.9 °F 86% 29.77 in 10.0 mi ENE 17.3 mph 23.0 mph 0.05 in   Overcast
1:50 PM 51.8 °F - 48.2 °F 88% 29.78 in 10.0 mi East 10.4 mph - 0.05 in Rain Light Rain
1:54 PM 51.1 °F - 48.0 °F 89% 29.78 in 10.0 mi ENE 8.1 mph - 0.05 in Rain Light Rain
2:05 PM 51.1 °F - 46.9 °F 86% 29.78 in 10.0 mi NE 10.4 mph - 0.00 in   Overcast
2:21 PM 51.1 °F - 46.9 °F 86% 29.78 in 6.0 mi NE 9.2 mph - 0.00 in Rain Light Rain
2:34 PM 50.0 °F - 46.9 °F 89% 29.79 in 3.0 mi NNE 12.7 mph - 0.01 in Rain Rain
2:41 PM 50.0 °F - 46.9 °F 89% 29.81 in 2.0 mi NNE 8.1 mph - 0.03 in Rain Rain
2:48 PM 50.0 °F - 46.4 °F 87% 29.83 in 1.5 mi Variable 5.8 mph - 0.06 in Rain Heavy Rain
2:54 PM 50.0 °F - 46.9 °F 89% 29.81 in 1.2 mi NNW 6.9 mph - 0.11 in Rain Heavy Rain
3:02 PM 50.0 °F - 48.0 °F 93% 29.81 in 2.0 mi North 8.1 mph 18.4 mph 0.09 in Rain Heavy Rain
3:13 PM 50.0 °F - 46.9 °F 89% 29.79 in 3.0 mi NNE 11.5 mph - 0.13 in Rain Rain
3:54 PM 50.0 °F - 48.0 °F 93% 29.81 in 4.0 mi NE 9.2 mph - 0.26 in Rain Light Rain
4:03 PM 50.0 °F - 48.0 °F 93% 29.81 in 7.0 mi NNE 5.8 mph - 0.00 in Rain Light Rain
4:14 PM 50.0 °F - 46.9 °F 89% 29.80 in 5.0 mi NNE 9.2 mph - 0.01 in Rain Rain
4:20 PM 50.0 °F - 46.9 °F 89% 29.80 in 3.0 mi NE 11.5 mph - 0.02 in Rain Light Rain
4:26 PM 50.0 °F - 46.9 °F 89% 29.79 in 3.0 mi NE 11.5 mph - 0.02 in Rain Light Rain
4:32 PM 50.0 °F - 46.9 °F 89% 29.79 in 5.0 mi NE 11.5 mph - 0.02 in Rain Light Rain
4:49 PM 51.8 °F - 48.2 °F 88% 29.79 in 7.0 mi NE 10.4 mph - 0.03 in Rain Light Rain
4:54 PM 50.0 °F - 46.9 °F 89% 29.79 in 7.0 mi NE 10.4 mph - 0.03 in   Overcast
5:11 PM 50.0 °F - 46.9 °F 89% 29.80 in 10.0 mi NE 10.4 mph - N/A   Overcast
5:23 PM 50.0 °F - 46.0 °F 86% 29.81 in 10.0 mi ENE 10.4 mph - N/A   Overcast
5:38 PM 50.0 °F - 46.9 °F 89% 29.80 in 6.0 mi NE 11.5 mph 20.7 mph 0.00 in Rain Light Rain
5:44 PM 48.9 °F - 46.0 °F 90% 29.80 in 4.0 mi ENE 12.7 mph - 0.00 in Rain Light Rain
5:54 PM 48.9 °F - 46.0 °F 90% 29.80 in 7.0 mi ENE 10.4 mph - 0.00 in   Overcast
6:13 PM 48.9 °F - 46.0 °F 90% 29.81 in 9.0 mi NE 12.7 mph - N/A   Overcast
6:54 PM 48.9 °F - 46.0 °F 90% 29.81 in 9.0 mi ENE 9.2 mph - 0.00 in Rain Light Rain
7:11 PM 48.9 °F - 46.0 °F 90% 29.79 in 10.0 mi ENE 11.5 mph - 0.00 in   Overcast
7:50 PM 48.2 °F - 44.6 °F 87% 29.83 in 10.0 mi NE 8.1 mph - 0.00 in   Overcast
7:54 PM 48.9 °F - 45.0 °F 86% 29.82 in 10.0 mi ENE 8.1 mph - 0.00 in   Overcast
8:54 PM 48.9 °F - 45.0 °F 86% 29.84 in 10.0 mi NE 5.8 mph - N/A   Overcast
9:26 PM 48.9 °F - 45.0 °F 86% 29.84 in 10.0 mi ENE 8.1 mph - N/A   Overcast
9:54 PM 48.9 °F - 45.0 °F 86% 29.85 in 10.0 mi NE 4.6 mph - N/A   Overcast
10:54 PM 48.9 °F - 45.0 °F 86% 29.86 in 10.0 mi East 5.8 mph - N/A   Overcast
11:17 PM 48.9 °F - 45.0 °F 86% 29.85 in 10.0 mi East 5.8 mph - N/A   Overcast
11:54 PM 48.9 °F - 44.1 °F 83% 29.85 in 10.0 mi ENE 6.9 mph - N/A   Overcast